Probability
0 0 0 0 0 0 0 0 0 0 0 0 0 0 0 0 0 0 0 0 0 0 0 0 0 0 0 0 0 0 0 0 0 0 0 0 0 0 0 0 0 0 0
0 0 0 0 0 0 0 0 0 0 0 0 0 0 0 0 0 0 0 0 0 0 0 0 0 0 0 0 0 0 0 0 0 0 0 0 0 0 0 0 0 0 0
0 0 0 0 0 0 0 0 0 0 0 0 0 0 0 0 0 0 0 0 0 0 0 0 0 0 0 0 0 0 0 0 0 0 0 0 0 0 0 0 0 0 0
0 0 0 0 0 0 0 0 0 0 0 0 0 0 0 0 0 0 0 0 0 0 0 0 0 0 0 0 0 0 0 0 0 0 0 0 0 0 0 0 0 0 0
0 0 0 0 0 0 0 0 0 0 0 0 0 0 0 0 0 0 0 0 0 0 0 0 0 0 0 0 0 0 0 0 0 0 0 0 0 0 0 0 0 0 0
0 0 0 0 0 0 0 0 0 0 0 0 0 0 0 0 0 0 0 0 0 0 0 0 0 0 0 0 0 0 0 0 0 0 0 0 0 0 0 0 0 0 0
0 0 0 0 0 0 0 0 0 0 0 0 0 0 0 0 0 0 0 0 0 0 0 0 0 0 0 0 0 0 0 0 0 0 0 0 0 0 0 0 0 0 0
0 0 0 0 0 0 0 0 0 0 0 0 0 0 0 0 0 0 0 0 0 0 0 0 0 0 0 0 0 0 0 0 0 0 0 0 0 0 0 0 0 0 0
0 0 0 0 0 0 0 0 0 0 0 0 0 0 0 0 0 0 0 0 0 0 0 0 0 0 0 0 0 0 0 0 0 0 0 0 0 0 0 0 0 0 0
0 0 0 0 0 0 0 0 0 0 0 0 0 0 0 0 0 0 0 0 0 0 0 0 0 0 0 0 0 0 0 0 0 0 0 0 0 0 0 0 0 0 0
0 0 0 0 0 0 0 0 0 0 0 0 0 0 0 0 0 0 0 0 0 0 0 0 0 0 0 0 0 0 0 0 0 0 0 0 0 0 0 0 0 0 0
0 0 0 0 0 0 0 0 0 0 0 0 0 0 0 0 0 0 0 0 0 0 0 0 0 0 0 0 0 0 0 0 0 0 0 0 0 0 0 0 0 0 0
0 0 0 0 0 0 0 0 0 0 0 0 0 0 0 0 0 0 0 0 0 0 0 0 0 0 0 0 0 0 0 0 0 0 0 0 0 0 0 0 0 0 0
0 0 0 0 0 0 0 0 0 0 0 0 0 0 0 0 0 0 0 0 0 0 0 0 0 0 0 0 0 0 0 0 0 0 0 0 0 0 0 0 0 0 0
0 0 0 0 0 0 0 0 0 0 0 0 0 0 0 0 0 0 0 0 0 0 0 0 0 0 0 0 0 0 0 0 0 0 0 0 0 0 0 0 0 0 0
0 0 0 0 0 0 0 0 0 0 0 0 0 0 0 0 0 0 0 0 0 0 0 0 0 0 0 0 0 0 0 0 0 0 0 0 0 0 0 0 0 0 0
0 0 0 0 0 0 0 0 0 0 0 0 0 0 0 0 0 0 0 0 0 0 0 0 0 0 0 0 0 0 0 0 0 0 0 0 0 0 0 0 0 0 0
0 0 0 0 0 0 0 0 0 0 0 0 0 0 0 0 0 0 0 0 0 0 0 0 0 0 0 0 0 0 0 0 0 0 0 0 0 0 0 0 0 0 0
0 0 0 0 0 0 0 0 0 0 0 0 0 0 0 0 0 0 0 0 0 0 0 0 0 0 0 0 0 0 0 0 0 0 0 0 0 0 0 0 0 0 0
0 0 0 0 0 0 0 0 0 0 0 0 0 0 0 0 0 0 0 0 0 0 0 0 0 0 0 0 0 0 0 0 0 0 0 0 0 0 0 0 0 0 0
0 0 0 0 0 0 0 0 0 0 0 0 0 0 0 0 0 0 0 0 0 0 0 0 0 0 0 0 0 0 0 0 0 0 0 0 0 0 0 0 0 0 0
0 0 0 0 0 0 0 0 0 0 0 0 0 0 0 0 0 0 0 0 0 0 0 0 0 0 0 0 0 0 0 0 0 0 0 0 0 0 0 0 0 0 0
0 0 0 0 0 0 0 0 0 0 0 0 0 0 0 0 0 0 0 0 0 0 0 0 0 0 0 0 0 0 0 0 0 0 0 0 0 0 0 0 0 0 0
0 0 0 0 0 0 0 0 0 0 0 0 0 0 0 0 0 0 0 0 0 0 0 0 0 0 0 0 0 0 0 0 0 0 0 0 0 0 0 0 0 0 0
0 0 0 0 0 0 0 0 0 0 0 0 0 0 0 0 0 0 0 0 0 0 0 0 0 0 0 0 0 0 0 0 0 0 0 0 0 0 0 0 0 0 0
0 0 0 0 0 0 0 0 0 0 0 0 0 0 0 0 0 0 0 0 0 0 0 0 0 0 0 0 0 0 0 0 0 0 0 0 0 0 0 0 0 0 0
Wind_Speed
5 4 4 4 4 4 4 4 4 3 4 5 5 4 4 4 4 5 4 4 4 3 3 3 3 2 2 2 1 1 1 2 2 2 2 2 2 3 3 3 3 3 3
4 4 4 4 4 4 4 3 3 3 3 4 4 4 4 3 4 5 5 5 5 4 4 4 3 3 3 2 2 2 2 2 3 3 2 2 3 3 3 3 3 3 3
4 4 4 4 4 4 4 3 3 3 3 3 4 4 4 4 4 4 5 5 4 5 5 5 4 4 3 3 3 2 2 2 2 2 2 2 2 2 2 3 3 3 3
4 4 4 4 4 4 4 3 3 3 4 4 4 4 4 4 4 4 4 4 3 3 4 4 4 5 5 4 3 3 3 2 2 2 2 2 2 2 2 2 3 3 3
4 4 4 3 3 3 3 3 3 3 3 3 3 3 3 3 3 4 4 4 3 3 3 3 4 5 5 5 4 4 4 3 2 2 2 2 2 2 2 2 3 3 3
3 3 3 4 4 4 3 3 3 3 2 3 3 3 3 3 5 6 5 3 3 3 3 3 3 3 4 5 5 5 5 4 4 3 3 3 3 3 2 2 2 2 4
3 3 3 4 4 4 3 3 3 3 3 3 3 3 3 3 6 6 6 4 3 3 3 3 2 3 3 2 4 5 5 6 6 4 4 5 4 4 3 3 3 3 4
2 3 3 3 3 3 3 3 3 3 3 3 2 3 2 3 4 5 5 3 2 2 3 3 3 2 3 3 3 2 3 3 4 3 3 4 3 3 4 4 3 3 3
1 1 2 2 3 3 3 3 2 2 2 2 2 2 2 2 4 4 3 3 2 2 2 2 3 3 6 5 3 3 2 2 4 4 5 4 5 5 3 1 1 2 3
1 1 1 2 2 3 3 2 2 2 2 2 1 2 2 2 4 4 3 2 2 2 1 2 4 4 5 5 3 3 3 3 2 2 2 3 3 3 4 2 2 2 2
2 2 1 1 2 2 2 2 2 2 2 2 1 1 2 2 3 4 4 2 3 3 2 2 2 5 5 5 3 2 4 3 1 1 1 1 1 1 2 2 2 3 3
2 2 2 1 1 1 2 2 2 3 3 2 2 1 1 1 2 3 4 3 2 2 2 2 3 5 5 5 3 3 3 2 1 1 1 1 1 2 2 2 3 3 3
2 2 2 1 1 1 2 2 2 2 2 2 2 1 1 1 1 3 3 3 3 2 2 4 4 5 5 3 3 3 2 1 1 1 2 2 2 2 2 2 2 2 3
2 2 1 1 1 1 1 1 1 2 2 2 2 2 1 1 1 1 1 1 2 2 1 3 4 4 3 2 2 2 1 1 1 2 2 2 1 1 2 2 2 2 2
2 1 1 1 1 1 1 1 1 2 3 3 2 2 2 2 3 3 2 1 1 2 1 1 1 1 1 1 0 0 0 1 1 1 1 1 2 2 2 2 1 1 2
1 1 1 0 0 1 1 1 2 1 1 1 1 2 2 3 4 4 4 4 3 3 1 1 1 1 2 2 1 1 1 1 1 1 1 2 2 2 2 2 2 2 3
1 1 1 0 0 0 0 0 0 2 2 2 2 2 2 2 2 2 3 3 2 2 1 1 2 2 2 2 2 2 2 2 2 2 2 2 2 2 2 2 2 2 3
1 1 1 0 0 0 0 0 0 0 1 1 2 3 3 3 2 2 2 1 0 0 0 1 1 2 2 2 2 2 2 2 2 2 2 2 2 2 3 3 3 3 3
1 1 1 0 0 0 0 0 0 0 0 1 1 2 3 3 3 2 1 0 1 1 1 1 1 2 2 2 2 2 2 2 2 2 3 3 3 3 3 3 3 5 4
1 2 2 0 0 0 0 0 0 0 1 1 1 2 2 1 1 1 1 1 1 2 2 2 2 2 2 3 3 3 3 3 3 3 3 3 3 3 4 4 4 4 4
1 1 2 1 0 0 0 0 1 1 1 2 2 3 4 1 1 1 2 2 2 2 2 2 2 3 3 3 3 3 3 3 3 3 3 3 3 3 3 3 4 4 4
1 1 1 1 0 1 1 1 1 1 2 2 2 3 4 1 1 2 2 2 2 2 2 2 2 3 3 3 3 3 4 4 4 3 3 3 3 3 3 4 4 4 4
1 1 1 1 1 2 1 1 1 1 2 2 2 2 2 2 2 2 2 2 2 2 2 2 3 3 3 3 3 4 4 5 4 4 4 4 3 4 4 4 5 5 5
1 1 1 1 1 1 1 2 2 2 2 2 2 2 2 2 2 3 2 2 2 2 2 2 3 4 4 4 3 3 4 5 4 4 5 5 4 4 4 4 5 6 6
1 1 1 1 2 2 2 2 2 2 2 2 2 2 2 2 3 3 3 2 3 3 3 3 3 3 5 5 5 5 7 9 9 5 5 5 5 5 5 5 5 5 5
1 1 2 2 2 2 2 2 2 2 2 3 3 3 3 3 3 3 3 3 3 3 4 3 4 5 6 5 6 8 10 10 10 10 5 4 5 5 5 5 6 6 6
Wind_Direction
176 177 176 178 179 174 177 184 184 180 179 180 182 181 177 176 171 167 172 175 180 187 193 189 206 207 185 187 181 179 186 183 224 275 281 299 303 301 310 311 314 308 308
176 171 172 171 172 174 177 177 178 178 178 179 174 172 173 170 166 168 175 180 184 189 197 192 210 199 187 192 191 195 200 199 202 246 273 290 290 288 291 300 310 310 302
167 166 167 171 174 177 177 172 170 170 168 170 171 175 179 173 169 174 177 186 190 195 197 197 210 191 193 201 202 203 207 212 203 215 258 281 288 288 298 299 301 297 296
160 164 172 177 179 176 168 162 164 167 168 174 182 182 182 175 173 172 171 178 183 195 201 206 212 200 198 200 204 202 197 199 200 209 241 268 277 281 277 287 297 293 293
162 167 174 166 159 157 157 157 160 168 172 172 176 177 174 171 175 171 176 178 182 192 208 217 216 208 208 206 205 197 194 199 203 214 234 256 264 273 272 276 277 297 291
159 164 155 151 151 156 160 157 158 163 164 168 169 175 181 189 194 191 177 171 175 183 203 212 210 207 216 226 232 224 213 203 204 208 228 237 252 257 265 271 273 292 295
147 147 152 156 156 161 161 159 164 168 164 171 171 180 193 201 202 201 197 175 172 188 202 201 209 212 219 210 234 246 246 243 238 223 222 230 236 233 229 253 257 256 269
132 146 157 159 156 153 150 155 159 156 165 170 177 183 187 209 210 211 205 171 165 191 204 200 199 206 215 210 207 221 240 249 250 244 226 235 238 231 223 234 247 265 275
75 115 143 149 147 145 146 150 148 145 148 156 171 174 181 209 219 220 206 162 170 193 207 204 202 207 218 220 199 201 234 259 269 262 262 263 266 267 260 229 237 256 275
13 30 87 129 145 154 157 153 146 146 148 145 155 169 189 210 229 225 209 168 173 185 202 214 224 223 222 228 207 191 216 242 244 261 275 286 281 269 265 229 216 242 266
11 30 57 95 136 149 145 144 143 137 128 130 148 176 197 218 230 233 227 191 183 188 202 212 225 229 237 240 237 211 230 240 201 201 256 282 290 267 258 245 235 234 244
29 35 45 74 103 116 124 128 138 137 137 142 150 164 194 228 234 244 238 234 215 194 204 209 221 231 240 244 249 238 247 249 170 190 231 262 269 265 264 258 256 254 250
37 34 35 53 77 104 132 138 140 143 150 162 168 186 211 229 242 255 251 252 242 233 217 223 227 235 245 247 247 247 244 190 175 218 240 257 265 263 264 266 272 275 280
42 27 34 71 83 96 116 137 153 167 172 179 186 197 220 242 245 241 235 249 253 244 224 228 235 241 255 261 260 255 231 200 211 228 248 265 279 274 267 264 270 289 287
31 20 29 47 93 96 82 144 189 206 204 197 199 197 201 225 246 253 248 239 214 204 186 198 200 199 209 211 198 229 237 236 247 247 250 267 272 272 275 276 263 272 269
18 11 19 40 62 76 80 37 17 354 292 280 259 250 254 262 271 266 263 261 258 230 195 171 190 199 206 209 214 230 238 243 254 252 242 250 261 261 269 273 264 258 270
3 336 342 1 64 92 102 116 17 359 1 351 313 282 276 280 284 285 280 278 263 206 161 178 195 204 214 215 219 227 240 243 249 245 240 244 253 257 257 265 270 268 271
352 338 344 339 209 170 180 176 147 349 343 341 332 326 313 300 295 298 302 351 350 91 179 208 217 217 219 223 226 231 239 240 242 250 246 244 245 246 250 257 260 261 270
336 324 313 287 234 150 122 92 73 15 312 314 329 328 332 326 326 324 338 26 219 235 237 234 233 231 230 229 231 231 232 238 241 247 248 244 244 242 246 252 256 269 274
327 325 331 344 50 61 69 100 307 280 281 280 287 293 305 323 333 322 326 281 247 244 246 245 243 239 235 231 232 233 237 239 241 245 248 240 239 237 240 245 252 259 263
317 318 331 350 15 343 302 255 245 247 259 272 276 279 285 280 265 273 276 267 253 250 253 251 250 246 239 235 232 234 239 242 242 242 249 248 239 241 240 242 248 254 262
302 299 294 284 289 285 277 267 258 260 265 272 284 290 292 307 276 273 273 272 268 260 255 251 251 247 236 230 229 233 237 240 240 239 244 250 247 245 243 243 248 252 257
310 299 301 295 284 283 299 293 273 265 267 273 281 287 290 283 278 273 272 276 277 275 269 258 258 261 257 247 234 227 231 238 235 230 237 246 250 247 243 243 247 252 256
313 299 297 300 295 278 275 275 271 270 268 269 274 278 277 274 275 279 279 279 278 280 280 273 266 264 266 268 258 247 241 242 237 230 228 234 243 251 248 244 247 249 255
325 302 293 289 286 280 274 273 272 270 270 272 272 273 272 274 276 278 278 277 273 274 276 275 271 268 268 269 268 262 257 259 255 242 223 225 235 243 248 250 251 254 256
306 292 284 279 273 270 266 266 268 268 268 272 272 269 268 269 270 273 276 276 275 275 278 278 272 271 274 273 269 267 268 267 264 261 246 229 232 241 245 251 252 255 257